Погода в Колодрубах

Украина / Львовская область     49°30′18″N   23°47′47″E
темп.,
°C
ветер,
м/с
пор.,
м/с
влажн.,
%
обл.,
%
осадки,
мм/ч
давл.,
гПа
погр.,
м
6 мая, чт
чт600:00+8зсз81195100 3.1 1006960
03:00+5зюз51092100 7.1 1007366
06:00+6з712875 0.0 1010624
09:00+7з7117235 0.0 1013968
12:00+11з48495 0.0 10122094
15:00+13зюз784899 0.0 10122274
18:00+13зюз6105652 0.4 10111714
21:00+8юз3668100 0.6 1012115
7 мая, пт
пт700:00+6ю2276100 0.0 101222
03:00+5ююв357690 0.0 101285
06:00+6юв3774100 0.0 1009142
09:00+8ююв51084100 0.7 1007344
12:00+11юз598099 0.1 1007877
15:00+14юз676696 0.3 10061241
18:00+12зюз61074100 0.2 1007587
21:00+9зсз51093100 2.6 1009546
8 мая, сб
сб800:00+7сз61188100 2.9 1011937
03:00+5зсз71384100 3.0 1014819
06:00+4зсз6118761 0.1 1016748
09:00+3зсз61097100 0.3 1019732
12:00+5зсз61080100 0.1 10211325
15:00+7зсз6969100 0.3 10211448
18:00+9зсз48616 0.0 10211404
21:00+5зюз33867 0.0 102220
9 мая, вс
вс900:00+3зюз358960 0.0 102371
03:00+2з22882 0.0 102518
06:00+2ююз118651 0.0 102510
09:00+8ююв236976 0.0 1025276
12:00+13ююв345343 0.0 10241305
15:00+17юз2442100 0.0 10232056
18:00+17юз2453100 0.0 10221785
21:00+10юв488232 0.0 1023141
10 мая, пн
пн1000:00+7юв49825 0.0 1023155
03:00+5юв46885 0.0 102388
06:00+4юв46905 0.0 102396
09:00+11юв57725 0.0 1022263
12:00+16юв67585 0.0 1021628
15:00+19юв67535 0.0 1020875
18:00+18вюв710670 0.0 1019601
21:00+14юв614750 0.0 1019377